This is the latest recevied weather packets stored in our database for station/object KF4PPJ. If no packets are shown the sender has not sent any weather packets the latest 10 day(s).
| Time | Temp. | Humidity | Pressure | Rain* | Wind** | Luminosity | Snow |
|---|---|---|---|---|---|---|---|
| 1777779769 | 17.78° C | 63% | 1015.9 hPa | 0 mm | - | 0 W/m² | - |
| 1777779466 | 18.33° C | 63% | 1015.8 hPa | 0 mm | - | 0 W/m² | - |
| 1777779164 | 18.89° C | 62% | 1015.8 hPa | 0 mm | - | 0 W/m² | - |
| 1777778862 | 18.89° C | 62% | 1015.7 hPa | 0 mm | - | 0 W/m² | - |
| 1777778560 | 19.44° C | 62% | 1015.8 hPa | 0 mm | - | 1 W/m² | - |
| 1777778257 | 19.44° C | 59% | 1015.7 hPa | 0 mm | - | 3 W/m² | - |
| 1777777955 | 19.44° C | 61% | 1015.7 hPa | 0 mm | - | 5 W/m² | - |
| 1777777651 | 20° C | 60% | 1015.7 hPa | 0 mm | - | 8 W/m² | - |
| 1777777347 | 20° C | 59% | 1015.7 hPa | 0 mm | - | 10 W/m² | - |
| 1777777044 | 20.56° C | 59% | 1015.6 hPa | 0 mm | - | 13 W/m² | - |
| 1777776742 | 20.56° C | 59% | 1015.4 hPa | 0 mm | - | 16 W/m² | - |
| 1777776438 | 21.11° C | 55% | 1015.3 hPa | 0 mm | - | 19 W/m² | - |
| 1777776136 | 21.67° C | 53% | 1015.4 hPa | 0 mm | - | 22 W/m² | - |
| 1777775833 | 21.67° C | 53% | 1015.2 hPa | 0 mm | - | 25 W/m² | - |
| 1777775524 | 21.67° C | 52% | 1015.2 hPa | 0 mm | - | 27 W/m² | - |
| 1777775220 | 22.22° C | 52% | 1015.2 hPa | 0 mm | - | 29 W/m² | - |
| 1777774920 | 22.22° C | 51% | 1015.3 hPa | 0 mm | - | 32 W/m² | - |
| 1777774617 | 22.22° C | 52% | 1015.2 hPa | 0 mm | - | 35 W/m² | - |
| 1777774313 | 22.78° C | 51% | 1015.2 hPa | 0 mm | - | 37 W/m² | - |
| 1777774011 | 22.78° C | 51% | 1015.2 hPa | 0 mm | - | 39 W/m² | - |
| 1777773708 | 22.78° C | 51% | 1015.3 hPa | 0 mm | - | 55 W/m² | - |
| 1777773405 | 22.78° C | 50% | 1015 hPa | 0 mm | - | 43 W/m² | - |
| 1777773102 | 22.78° C | 50% | 1015.2 hPa | 0 mm | - | 45 W/m² | - |
| 1777772797 | 23.33° C | 49% | 1015.2 hPa | 0 mm | - | 46 W/m² | - |
| 1777772496 | 23.33° C | 49% | 1015.2 hPa | 0 mm | - | 48 W/m² | - |
* Rain latest hour (hover to see other rain measurements)
** Current wind speed in m/s (hover to see current wind gust speed)